Location: Home
(42.5358°N, 72.7383°W)
Time: 20:18:35
(UTC-05:00)

Tiros 1 - Pass Details

Date: 05 December 2021
Orbit: 629 x 664 km, 48.4° (Epoch: 18 January)

Event Time Altitude Azimuth Distance (km) Brightness Sun altitude
Rises 17:21:27 0° 225° (SW) 2,905 11.8 -11.4°
Reaches altitude 10° 17:23:48 10° 220° (SW) 2,003 10.7 -11.8°
Maximum altitude 17:28:15 50° 145° (SE) 807 7.5 -12.6°
Enters shadow 17:31:16 20° 77° (ENE) 1,484 8.4 -13.1°
